| time (UTC) | temp F | wind direction | speed MPH | gust MPH | rain 1hr in | rain 24hr in | rain mn in | humidity % | barometer mb |
| 20260905232527 | 72 | 100 | 0.0 | 0.0 | 0.00 | 0.00 | 0.00 | 1016.2 | |
| 20260905232022 | 73 | 47 | 0.0 | 4.0 | 0.00 | 0.00 | 0.00 | 1016.2 | |
| 20260905231522 | 73 | 104 | 0.0 | 0.0 | 0.00 | 0.00 | 0.00 | 1016.2 | |
| 20260905231026 | 73 | 88 | 0.0 | 0.0 | 0.00 | 0.00 | 0.00 | 1016.2 | |
| 20260905230523 | 74 | 10 | 0.0 | 3.0 | 0.00 | 0.00 | 0.00 | 1016.2 | |
| 20260905230043 | 74 | 52 | 0.0 | 0.0 | 0.00 | 0.00 | 0.00 | 1016.2 | |
| 20260905225545 | 74 | 53 | 0.0 | 2.0 | 0.00 | 0.00 | 0.00 | 1016.2 | |
| 20260905225023 | 74 | 316 | 0.0 | 0.0 | 0.00 | 0.00 | 0.00 | 1016.2 | |
| 20260905224545 | 75 | 36 | 0.0 | 3.0 | 0.00 | 0.00 | 0.00 | 1016.2 | |
| 20260905224023 | 75 | 78 | 0.0 | 0.0 | 0.00 | 0.00 | 0.00 | 1016.2 | |
| 20260905223522 | 75 | 32 | 0.0 | 0.0 | 0.00 | 0.00 | 0.00 | 1016.2 | |
| 20260905223023 | 76 | 103 | 0.0 | 0.0 | 0.00 | 0.00 | 0.00 | 1016.2 | |
| 20260905222523 | 76 | 101 | 0.0 | 0.0 | 0.00 | 0.00 | 0.00 | 1016.2 | |
| 20260905222023 | 76 | 264 | 0.0 | 0.0 | 0.00 | 0.00 | 0.00 | 1016.2 | |
| 20260905221522 | 76 | 92 | 0.0 | 0.0 | 0.00 | 0.00 | 0.00 | 1016.2 | |
| 20260905221046 | 77 | 46 | 0.0 | 0.0 | 0.00 | 0.00 | 0.00 | 1016.2 | |
| 20260905220522 | 77 | 357 | 4.0 | 0.0 | 0.00 | 0.00 | 0.00 | 1015.2 | |
| 20260905220022 | 77 | 71 | 0.0 | 2.0 | 0.00 | 0.00 | 0.00 | 1015.2 | |
| 20260905215522 | 77 | 11 | 0.0 | 4.0 | 0.00 | 0.00 | 0.00 | 1015.2 | |
| 20260905215023 | 77 | 45 | 0.0 | 0.0 | 0.00 | 0.00 | 0.00 | 1015.2 | |
| 20260905214522 | 77 | 89 | 0.0 | 0.0 | 0.00 | 0.00 | 0.00 | 1015.2 | |
| 20260905214022 | 77 | 89 | 0.0 | 0.0 | 0.00 | 0.00 | 0.00 | 1015.2 | |
| 20260905213522 | 77 | 101 | 0.0 | 0.0 | 0.00 | 0.00 | 0.00 | 1015.2 | |
| 20260905213022 | 78 | 95 | 0.0 | 0.0 | 0.00 | 0.00 | 0.00 | 1015.2 | |
| 20260905212523 | 78 | 105 | 0.0 | 0.0 | 0.00 | 0.00 | 0.00 | 1015.2 | |
| 20260905212023 | 78 | 81 | 0.0 | 0.0 | 0.00 | 0.00 | 0.00 | 1015.2 | |
| 20260905211523 | 78 | 50 | 0.0 | 0.0 | 0.00 | 0.00 | 0.00 | 1015.2 | |
| 20260905211044 | 78 | 93 | 0.0 | 0.0 | 0.00 | 0.00 | 0.00 | 1015.2 | |
| 20260905210523 | 79 | 95 | 0.0 | 0.0 | 0.00 | 0.00 | 0.00 | 1015.2 | |
| 20260905210053 | 79 | 350 | 0.0 | 3.0 | 0.00 | 0.00 | 0.00 | 1015.2 | |
| 20260905205523 | 79 | 107 | 0.0 | 0.0 | 0.00 | 0.00 | 0.00 | 1015.2 | |
| 20260905205023 | 79 | 54 | 0.0 | 0.0 | 0.00 | 0.00 | 0.00 | 1015.2 | |
| 20260905204526 | 79 | 58 | 0.0 | 0.0 | 0.00 | 0.00 | 0.00 | 1015.2 | |
| 20260905204044 | 79 | 64 | 0.0 | 3.0 | 0.00 | 0.00 | 0.00 | 1015.2 | |
| 20260905203524 | 79 | 325 | 0.0 | 0.0 | 0.00 | 0.00 | 0.00 | 1015.2 | |
| 20260905203043 | 78 | 16 | 0.0 | 0.0 | 0.00 | 0.00 | 0.00 | 1015.2 | |
| 20260905202523 | 78 | 30 | 0.0 | 0.0 | 0.00 | 0.00 | 0.00 | 1015.2 | |
| 20260905202022 | 78 | 47 | 0.0 | 0.0 | 0.00 | 0.00 | 0.00 | 1015.2 | |
| 20260905201523 | 79 | 99 | 0.0 | 0.0 | 0.00 | 0.00 | 0.00 | 1015.2 | |
| 20260905201022 | 79 | 1 | 0.0 | 0.0 | 0.00 | 0.00 | 0.00 | 1015.2 | |
| 20260905200526 | 78 | 0 | 0.0 | 0.0 | 0.00 | 0.00 | 0.00 | 1015.2 | |
| 20260905200030 | 78 | 2 | 0.0 | 0.0 | 0.00 | 0.00 | 0.00 | 1015.2 | |
| 20260905195530 | 78 | 54 | 0.0 | 0.0 | 0.00 | 0.00 | 0.00 | 1015.2 | |
| 20260905195026 | 79 | 43 | 0.0 | 0.0 | 0.00 | 0.00 | 0.00 | 1015.2 | |
| 20260905194549 | 79 | 316 | 0.0 | 2.0 | 0.00 | 0.00 | 0.00 | 1015.2 | |
| 20260905194049 | 78 | 311 | 0.0 | 0.0 | 0.00 | 0.00 | 0.00 | 1015.2 | |
| 20260905193545 | 78 | 294 | 0.0 | 0.0 | 0.00 | 0.00 | 0.00 | 1015.2 | |
| 20260905193032 | 78 | 318 | 0.0 | 0.0 | 0.00 | 0.00 | 0.00 | 1015.2 | |
| 20260905192544 | 78 | 104 | 0.0 | 0.0 | 0.00 | 0.00 | 0.00 | 1015.2 | |
| 20260905192023 | 78 | 104 | 0.0 | 0.0 | 0.00 | 0.00 | 0.00 | 1015.2 | |
| 20260905191529 | 77 | 104 | 0.0 | 0.0 | 0.00 | 0.00 | 0.00 | 1015.2 | |
| 20260905191027 | 77 | 104 | 0.0 | 0.0 | 0.00 | 0.00 | 0.00 | 1015.2 | |
| 20260905190523 | 77 | 104 | 0.0 | 0.0 | 0.00 | 0.00 | 0.00 | 1015.2 | |
| 20260905190024 | 77 | 353 | 0.0 | 0.0 | 0.00 | 0.00 | 0.00 | 1015.2 | |
| 20260905185522 | 76 | 317 | 0.0 | 0.0 | 0.00 | 0.00 | 0.00 | 1015.2 | |
| 20260905185023 | 76 | 350 | 0.0 | 0.0 | 0.00 | 0.00 | 0.00 | 1016.2 | |
| 20260905184522 | 76 | 338 | 0.0 | 0.0 | 0.00 | 0.00 | 0.00 | 1016.2 | |
| 20260905184024 | 76 | 345 | 0.0 | 0.0 | 0.00 | 0.00 | 0.00 | 1016.2 | |
| 20260905183523 | 76 | 309 | 0.0 | 0.0 | 0.00 | 0.00 | 0.00 | 1016.2 | |
| 20260905183024 | 76 | 291 | 0.0 | 0.0 | 0.00 | 0.00 | 0.00 | 1016.2 | |
| 20260905182523 | 76 | 32 | 0.0 | 0.0 | 0.00 | 0.00 | 0.00 | 1016.2 | |
| 20260905182023 | 76 | 353 | 0.0 | 0.0 | 0.00 | 0.00 | 0.00 | 1016.2 | |
| 20260905181523 | 76 | 42 | 0.0 | 0.0 | 0.00 | 0.00 | 0.00 | 1016.2 | |
| 20260905181022 | 76 | 330 | 0.0 | 0.0 | 0.00 | 0.00 | 0.00 | 1016.2 | |
| 20260905180522 | 76 | 46 | 0.0 | 0.0 | 0.00 | 0.00 | 0.00 | 1016.2 | |
| 20260905180045 | 76 | 64 | 2.0 | 0.0 | 0.00 | 0.00 | 0.00 | 1016.2 | |
| 20260905175523 | 76 | 339 | 0.0 | 0.0 | 0.00 | 0.00 | 0.00 | 1016.2 | |
| 20260905175023 | 75 | 1 | 0.0 | 0.0 | 0.00 | 0.00 | 0.00 | 1015.2 | |
| 20260905174523 | 76 | 335 | 0.0 | 3.0 | 0.00 | 0.00 | 0.00 | 1015.2 | |
| 20260905174023 | 75 | 0 | 0.0 | 0.0 | 0.00 | 0.00 | 0.00 | 1015.2 | |
| 20260905173543 | 75 | 333 | 0.0 | 0.0 | 0.00 | 0.00 | 0.00 | 1015.2 | |
| 20260905173024 | 75 | 334 | 0.0 | 0.0 | 0.00 | 0.00 | 0.00 | 1015.2 | |
| 20260905172523 | 75 | 82 | 0.0 | 0.0 | 0.00 | 0.00 | 0.00 | 1015.2 | |
| 20260905172022 | 75 | 0 | 2.0 | 0.0 | 0.00 | 0.00 | 0.00 | 1016.2 | |
| 20260905171526 | 75 | 0 | 0.0 | 5.0 | 0.00 | 0.00 | 0.00 | 1016.2 | |
| 20260905171032 | 75 | 44 | 0.0 | 0.0 | 0.00 | 0.00 | 0.00 | 1016.2 | |
| 20260905170523 | 75 | 44 | 0.0 | 0.0 | 0.00 | 0.00 | 0.00 | 1016.2 | |
| 20260905170029 | 75 | 64 | 0.0 | 0.0 | 0.00 | 0.00 | 0.00 | 1016.2 | |
| 20260905165522 | 75 | 64 | 0.0 | 0.0 | 0.00 | 0.00 | 0.00 | 1016.2 | |
| 20260905165028 | 75 | 330 | 0.0 | 0.0 | 0.00 | 0.00 | 0.00 | 1016.2 | |
| 20260905164522 | 75 | 27 | 0.0 | 0.0 | 0.00 | 0.00 | 0.00 | 1016.2 | |
| 20260905164026 | 75 | 346 | 0.0 | 4.0 | 0.00 | 0.00 | 0.00 | 1016.2 | |
| 20260905163532 | 75 | 5 | 0.0 | 3.0 | 0.00 | 0.00 | 0.00 | 1016.2 | |
| 20260905163023 | 75 | 51 | 0.0 | 0.0 | 0.00 | 0.00 | 0.00 | 1016.2 | |
| 20260905162523 | 75 | 330 | 0.0 | 0.0 | 0.00 | 0.00 | 0.00 | 1016.2 | |
| 20260905162035 | 75 | 350 | 0.0 | 0.0 | 0.00 | 0.00 | 0.00 | 1016.2 | |
| 20260905161524 | 75 | 345 | 0.0 | 0.0 | 0.00 | 0.00 | 0.00 | 1016.2 | |
| 20260905161024 | 75 | 345 | 0.0 | 0.0 | 0.00 | 0.00 | 0.00 | 1016.2 | |
| 20260905160526 | 75 | 345 | 0.0 | 0.0 | 0.00 | 0.00 | 0.00 | 1016.2 | |
| 20260905160032 | 75 | 277 | 0.0 | 0.0 | 0.00 | 0.00 | 0.00 | 1016.2 | |
| 20260905155522 | 75 | 277 | 0.0 | 0.0 | 0.00 | 0.00 | 0.00 | 1016.2 | |
| 20260905155030 | 75 | 49 | 0.0 | 3.0 | 0.00 | 0.00 | 0.00 | 1015.2 | |
| 20260905154523 | 75 | 50 | 0.0 | 0.0 | 0.00 | 0.00 | 0.00 | 1015.2 | |
| 20260905154026 | 75 | 109 | 0.0 | 0.0 | 0.00 | 0.00 | 0.00 | 1015.2 | |
| 20260905153523 | 75 | 0 | 0.0 | 0.0 | 0.00 | 0.00 | 0.00 | 1015.2 | |
| 20260905153026 | 75 | 323 | 0.0 | 3.0 | 0.00 | 0.00 | 0.00 | 1015.2 | |
| 20260905152544 | 75 | 49 | 0.0 | 0.0 | 0.00 | 0.00 | 0.00 | 1015.2 | |
| 20260905152023 | 76 | 44 | 0.0 | 0.0 | 0.00 | 0.00 | 0.00 | 1015.2 | |
| 20260905151523 | 76 | 44 | 0.0 | 0.0 | 0.00 | 0.00 | 0.00 | 1015.2 | |
| 20260905151044 | 76 | 338 | 0.0 | 0.0 | 0.00 | 0.00 | 0.00 | 1015.2 | |
| 20260905150523 | 76 | 33 | 0.0 | 0.0 | 0.00 | 0.00 | 0.00 | 1015.2 | |
| 20260905150023 | 76 | 342 | 0.0 | 0.0 | 0.00 | 0.00 | 0.00 | 1015.2 | |
| 20260905145523 | 76 | 20 | 0.0 | 0.0 | 0.00 | 0.00 | 0.00 | 1015.2 | |
| 20260905145022 | 76 | 43 | 0.0 | 0.0 | 0.00 | 0.00 | 0.00 | 1015.2 | |
| 20260905144523 | 76 | 57 | 0.0 | 0.0 | 0.00 | 0.00 | 0.00 | 1015.2 | |
| 20260905144022 | 76 | 328 | 0.0 | 3.0 | 0.00 | 0.00 | 0.00 | 1015.2 | |
| 20260905143523 | 76 | 54 | 0.0 | 0.0 | 0.00 | 0.00 | 0.00 | 1015.2 | |
| 20260905143022 | 76 | 0 | 0.0 | 0.0 | 0.00 | 0.00 | 0.00 | 1015.2 | |
| 20260905142523 | 76 | 43 | 0.0 | 0.0 | 0.00 | 0.00 | 0.00 | 1015.2 | |
| 20260905142022 | 75 | 43 | 0.0 | 0.0 | 0.00 | 0.00 | 0.00 | 1015.2 | |
| 20260905141523 | 74 | 43 | 0.0 | 0.0 | 0.00 | 0.00 | 0.00 | 1015.2 | |
| 20260905141045 | 74 | 46 | 0.0 | 0.0 | 0.00 | 0.00 | 0.00 | 1015.2 | |
| 20260905140522 | 73 | 63 | 0.0 | 0.0 | 0.00 | 0.00 | 0.00 | 1015.2 | |
| 20260905140023 | 73 | 91 | 0.0 | 0.0 | 0.00 | 0.00 | 0.00 | 1015.2 | |
| 20260905135523 | 73 | 83 | 0.0 | 0.0 | 0.00 | 0.00 | 0.00 | 1015.2 | |
| 20260905135022 | 73 | 44 | 0.0 | 0.0 | 0.00 | 0.00 | 0.00 | 1015.2 | |
| 20260905134526 | 73 | 50 | 0.0 | 0.0 | 0.00 | 0.00 | 0.00 | 1015.2 | |
| 20260905134032 | 73 | 52 | 0.0 | 0.0 | 0.00 | 0.00 | 0.00 | 1015.2 | |
| 20260905133524 | 73 | 54 | 0.0 | 0.0 | 0.00 | 0.00 | 0.00 | 1015.2 | |
| 20260905133031 | 73 | 357 | 0.0 | 0.0 | 0.00 | 0.00 | 0.00 | 1015.2 | |
| 20260905132525 | 73 | 313 | 0.0 | 0.0 | 0.00 | 0.00 | 0.00 | 1015.2 | |
| 20260905132027 | 73 | 349 | 0.0 | 0.0 | 0.00 | 0.00 | 0.00 | 1015.2 | |
| 20260905131523 | 73 | 353 | 0.0 | 0.0 | 0.00 | 0.00 | 0.00 | 1015.2 | |
| 20260905131032 | 73 | 353 | 0.0 | 0.0 | 0.00 | 0.00 | 0.00 | 1015.2 | |
| 20260905130551 | 73 | 346 | 0.0 | 0.0 | 0.00 | 0.00 | 0.00 | 1014.2 | |
| 20260905130024 | 73 | 349 | 0.0 | 0.0 | 0.00 | 0.00 | 0.00 | 1014.2 | |
| 20260905125530 | 73 | 1 | 0.0 | 0.0 | 0.00 | 0.00 | 0.00 | 1014.2 | |
| 20260905125023 | 72 | 1 | 0.0 | 0.0 | 0.00 | 0.00 | 0.00 | 1014.2 | |
| 20260905124524 | 72 | 1 | 0.0 | 0.0 | 0.00 | 0.00 | 0.00 | 1014.2 | |
| 20260905124033 | 72 | 1 | 0.0 | 0.0 | 0.00 | 0.00 | 0.00 | 1014.2 | |
| 20260905123544 | 72 | 1 | 0.0 | 0.0 | 0.00 | 0.00 | 0.00 | 1014.2 | |
| 20260905123025 | 72 | 1 | 0.0 | 0.0 | 0.00 | 0.00 | 0.00 | 1014.2 | |
| 20260905122522 | 72 | 343 | 0.0 | 0.0 | 0.00 | 0.00 | 0.00 | 1014.2 | |
| 20260905122024 | 72 | 46 | 0.0 | 0.0 | 0.00 | 0.00 | 0.00 | 1014.2 | |
| 20260905121533 | 72 | 49 | 0.0 | 0.0 | 0.00 | 0.00 | 0.00 | 1014.2 | |
| 20260905121044 | 72 | 303 | 0.0 | 0.0 | 0.00 | 0.00 | 0.00 | 1014.2 | |
| 20260905120522 | 72 | 303 | 0.0 | 0.0 | 0.00 | 0.00 | 0.00 | 1013.2 | |
| 20260905120024 | 72 | 55 | 0.0 | 0.0 | 0.00 | 0.00 | 0.00 | 1013.2 | |
| 20260905115523 | 72 | 51 | 0.0 | 0.0 | 0.00 | 0.00 | 0.00 | 1013.2 | |
| 20260905115043 | 72 | 51 | 0.0 | 0.0 | 0.00 | 0.00 | 0.00 | 1013.2 | |
| 20260905114523 | 72 | 316 | 0.0 | 0.0 | 0.00 | 0.00 | 0.00 | 1013.2 | |
| 20260905114022 | 72 | 28 | 0.0 | 0.0 | 0.00 | 0.00 | 0.00 | 1013.2 | |
| 20260905113523 | 72 | 64 | 0.0 | 0.0 | 0.00 | 0.00 | 0.00 | 1013.2 | |
| 20260905113022 | 72 | 64 | 0.0 | 0.0 | 0.00 | 0.00 | 0.00 | 1013.2 | |
| 20260905112523 | 72 | 64 | 0.0 | 0.0 | 0.00 | 0.00 | 0.00 | 1013.2 | |
| 20260905112024 | 72 | 64 | 0.0 | 0.0 | 0.00 | 0.00 | 0.00 | 1013.2 | |
| 20260905111524 | 72 | 64 | 0.0 | 0.0 | 0.00 | 0.00 | 0.00 | 1013.2 | |
| 20260905111023 | 72 | 68 | 0.0 | 0.0 | 0.00 | 0.00 | 0.00 | 1013.2 | |
| 20260905110523 | 72 | 62 | 0.0 | 0.0 | 0.00 | 0.00 | 0.00 | 1013.2 | |
| 20260905110023 | 72 | 62 | 0.0 | 0.0 | 0.00 | 0.00 | 0.00 | 1013.2 | |
| 20260905105544 | 72 | 265 | 0.0 | 0.0 | 0.00 | 0.00 | 0.00 | 1013.2 | |
| 20260905105043 | 72 | 265 | 0.0 | 0.0 | 0.00 | 0.00 | 0.00 | 1013.2 | |
| 20260905104523 | 72 | 265 | 0.0 | 0.0 | 0.00 | 0.00 | 0.00 | 1013.2 | |
| 20260905104024 | 72 | 265 | 0.0 | 0.0 | 0.00 | 0.00 | 0.00 | 1013.2 | |
| 20260905103523 | 72 | 265 | 0.0 | 0.0 | 0.00 | 0.00 | 0.00 | 1013.2 | |
| 20260905103024 | 72 | 265 | 0.0 | 0.0 | 0.00 | 0.00 | 0.00 | 1013.2 | |
| 20260905102522 | 72 | 265 | 0.0 | 0.0 | 0.00 | 0.00 | 0.00 | 1013.2 | |
| 20260905102023 | 72 | 265 | 0.0 | 0.0 | 0.00 | 0.00 | 0.00 | 1013.2 | |
| 20260905101526 | 72 | 265 | 0.0 | 0.0 | 0.00 | 0.00 | 0.00 | 1013.2 | |
| 20260905101022 | 72 | 265 | 0.0 | 0.0 | 0.00 | 0.00 | 0.00 | 1013.2 | |
| 20260905100523 | 72 | 265 | 0.0 | 0.0 | 0.00 | 0.00 | 0.00 | 1013.2 | |
| 20260905100022 | 72 | 265 | 0.0 | 0.0 | 0.00 | 0.00 | 0.00 | 1013.2 | |
| 20260905095529 | 72 | 265 | 0.0 | 0.0 | 0.00 | 0.00 | 0.00 | 1013.2 | |
| 20260905095027 | 72 | 265 | 0.0 | 0.0 | 0.00 | 0.00 | 0.00 | 1013.2 | |
| 20260905094534 | 72 | 263 | 0.0 | 0.0 | 0.00 | 0.00 | 0.00 | 1013.2 | |
| 20260905094026 | 72 | 168 | 0.0 | 0.0 | 0.00 | 0.00 | 0.00 | 1013.2 | |
| 20260905093526 | 72 | 168 | 0.0 | 0.0 | 0.00 | 0.00 | 0.00 | 1013.2 | |
| 20260905093024 | 72 | 168 | 0.0 | 0.0 | 0.00 | 0.00 | 0.00 | 1013.2 | |
| 20260905092550 | 72 | 168 | 0.0 | 0.0 | 0.00 | 0.00 | 0.00 | 1013.2 | |
| 20260905092024 | 72 | 168 | 0.0 | 0.0 | 0.00 | 0.00 | 0.00 | 1013.2 | |
| 20260905091528 | 72 | 168 | 0.0 | 0.0 | 0.00 | 0.00 | 0.00 | 1013.2 | |
| 20260905091033 | 72 | 168 | 0.0 | 0.0 | 0.00 | 0.00 | 0.00 | 1013.2 | |
| 20260905090522 | 72 | 168 | 0.0 | 0.0 | 0.00 | 0.00 | 0.00 | 1013.2 | |
| 20260905090032 | 72 | 168 | 0.0 | 0.0 | 0.00 | 0.00 | 0.00 | 1013.2 | |
| 20260905085523 | 72 | 168 | 0.0 | 0.0 | 0.00 | 0.00 | 0.00 | 1013.2 | |
| 20260905085028 | 72 | 168 | 0.0 | 0.0 | 0.00 | 0.00 | 0.00 | 1013.2 | |
| 20260905084554 | 72 | 168 | 0.0 | 0.0 | 0.00 | 0.00 | 0.00 | 1013.2 | |
| 20260905084028 | 72 | 168 | 0.0 | 0.0 | 0.00 | 0.00 | 0.00 | 1013.2 | |
| 20260905083524 | 72 | 168 | 0.0 | 0.0 | 0.00 | 0.00 | 0.00 | 1012.2 | |
| 20260905083026 | 72 | 168 | 0.0 | 0.0 | 0.00 | 0.00 | 0.00 | 1012.2 | |
| 20260905082523 | 72 | 168 | 0.0 | 0.0 | 0.00 | 0.00 | 0.00 | 1012.2 | |
| 20260905082023 | 72 | 168 | 0.0 | 0.0 | 0.00 | 0.00 | 0.00 | 1013.2 | |
| 20260905081522 | 72 | 168 | 0.0 | 0.0 | 0.00 | 0.00 | 0.00 | 1013.2 | |
| 20260905081023 | 72 | 168 | 0.0 | 0.0 | 0.00 | 0.00 | 0.00 | 1013.2 | |
| 20260905080523 | 72 | 168 | 0.0 | 0.0 | 0.00 | 0.00 | 0.00 | 1013.2 | |
| 20260905080022 | 72 | 168 | 0.0 | 0.0 | 0.00 | 0.00 | 0.00 | 1013.2 | |
| 20260905075522 | 72 | 168 | 0.0 | 0.0 | 0.00 | 0.00 | 0.00 | 1013.2 | |
| 20260905075023 | 72 | 168 | 0.0 | 0.0 | 0.00 | 0.00 | 0.00 | 1013.2 | |
| 20260905074523 | 72 | 168 | 0.0 | 0.0 | 0.00 | 0.00 | 0.00 | 1013.2 | |
| 20260905074044 | 73 | 168 | 0.0 | 0.0 | 0.00 | 0.00 | 0.00 | 1013.2 | |
| 20260905073523 | 73 | 168 | 0.0 | 0.0 | 0.00 | 0.00 | 0.00 | 1013.2 | |
| 20260905073023 | 72 | 168 | 0.0 | 0.0 | 0.00 | 0.00 | 0.00 | 1013.2 | |
| 20260905072522 | 73 | 168 | 0.0 | 0.0 | 0.00 | 0.00 | 0.00 | 1013.2 | |
| 20260905072022 | 73 | 168 | 0.0 | 0.0 | 0.00 | 0.00 | 0.00 | 1013.2 | |
| 20260905071544 | 73 | 168 | 0.0 | 0.0 | 0.00 | 0.00 | 0.00 | 1013.2 | |
| 20260905071023 | 73 | 168 | 0.0 | 0.0 | 0.00 | 0.00 | 0.00 | 1013.2 | |
| 20260905070522 | 73 | 168 | 0.0 | 0.0 | 0.00 | 0.00 | 0.00 | 1013.2 | |
| 20260905070024 | 73 | 168 | 0.0 | 0.0 | 0.00 | 0.00 | 0.00 | 1013.2 | |
| 20260905065543 | 73 | 168 | 0.0 | 0.0 | 0.00 | 0.00 | 0.00 | 1013.2 | |
| 20260905065022 | 73 | 168 | 0.0 | 0.0 | 0.00 | 0.00 | 0.00 | 1013.2 | |
| 20260905064523 | 73 | 168 | 0.0 | 0.0 | 0.00 | 0.00 | 0.00 | 1013.2 | |
| 20260905064022 | 73 | 168 | 0.0 | 0.0 | 0.00 | 0.00 | 0.00 | 1013.2 | |
| 20260905063523 | 73 | 168 | 0.0 | 0.0 | 0.00 | 0.00 | 0.00 | 1013.2 | |
| 20260905063041 | 73 | 168 | 0.0 | 0.0 | 0.00 | 0.00 | 0.00 | 1013.2 | |
| 20260905062528 | 73 | 168 | 0.0 | 0.0 | 0.00 | 0.00 | 0.00 | 1013.2 | |
| 20260905062027 | 73 | 168 | 0.0 | 0.0 | 0.00 | 0.00 | 0.00 | 1013.2 | |
| 20260905061525 | 73 | 168 | 0.0 | 0.0 | 0.00 | 0.00 | 0.00 | 1013.2 | |
| 20260905061025 | 73 | 168 | 0.0 | 0.0 | 0.00 | 0.00 | 0.00 | 1013.2 | |
| 20260905060532 | 72 | 168 | 0.0 | 0.0 | 0.00 | 0.00 | 0.00 | 1013.2 | |
| 20260905060031 | 73 | 168 | 0.0 | 0.0 | 0.00 | 0.00 | 0.00 | 1013.2 | |
| 20260905055522 | 73 | 168 | 0.0 | 0.0 | 0.00 | 0.00 | 0.00 | 1013.2 | |
| 20260905055036 | 73 | 168 | 0.0 | 0.0 | 0.00 | 0.00 | 0.00 | 1013.2 | |
| 20260905054522 | 73 | 168 | 0.0 | 0.0 | 0.00 | 0.00 | 0.00 | 1013.2 | |
| 20260905054033 | 73 | 168 | 0.0 | 0.0 | 0.00 | 0.00 | 0.00 | 1013.2 | |
| 20260905053525 | 73 | 168 | 0.0 | 0.0 | 0.00 | 0.00 | 0.00 | 1013.2 | |
| 20260905053031 | 73 | 168 | 0.0 | 0.0 | 0.00 | 0.00 | 0.00 | 1013.2 | |
| 20260905052524 | 73 | 168 | 0.0 | 0.0 | 0.00 | 0.00 | 0.00 | 1013.2 | |
| 20260905052024 | 73 | 168 | 0.0 | 0.0 | 0.00 | 0.00 | 0.00 | 1013.2 | |
| 20260905051522 | 73 | 168 | 0.0 | 0.0 | 0.00 | 0.00 | 0.00 | 1013.2 | |
| 20260905051028 | 74 | 168 | 0.0 | 0.0 | 0.00 | 0.00 | 0.00 | 1013.2 | |
| 20260905050531 | 74 | 168 | 0.0 | 0.0 | 0.00 | 0.00 | 0.00 | 1013.2 | |
| 20260905050022 | 74 | 168 | 0.0 | 0.0 | 0.00 | 0.00 | 0.00 | 1013.2 | |
| 20260905045522 | 74 | 168 | 0.0 | 0.0 | 0.00 | 0.00 | 0.00 | 1013.2 | |
| 20260905045023 | 73 | 168 | 0.0 | 0.0 | 0.00 | 0.00 | 0.00 | 1013.2 | |
| 20260905044522 | 73 | 168 | 0.0 | 0.0 | 0.00 | 0.00 | 0.00 | 1013.2 | |
| 20260905044023 | 74 | 168 | 0.0 | 0.0 | 0.00 | 0.00 | 0.00 | 1013.2 | |
| 20260905043522 | 74 | 168 | 0.0 | 0.0 | 0.00 | 0.00 | 0.00 | 1013.2 | |
| 20260905043023 | 74 | 168 | 0.0 | 0.0 | 0.00 | 0.00 | 0.00 | 1013.2 | |
| 20260905042522 | 74 | 168 | 0.0 | 0.0 | 0.00 | 0.00 | 0.00 | 1013.2 | |
| 20260905042044 | 74 | 168 | 0.0 | 0.0 | 0.00 | 0.00 | 0.00 | 1013.2 | |
| 20260905041523 | 74 | 168 | 0.0 | 0.0 | 0.00 | 0.00 | 0.00 | 1013.2 | |
| 20260905041044 | 74 | 168 | 0.0 | 0.0 | 0.00 | 0.00 | 0.00 | 1013.2 | |
| 20260905040523 | 74 | 168 | 0.0 | 0.0 | 0.00 | 0.00 | 0.00 | 1013.2 | |
| 20260905040023 | 74 | 168 | 0.0 | 0.0 | 0.00 | 0.00 | 0.00 | 1013.2 | |
| 20260905035523 | 74 | 168 | 0.0 | 0.0 | 0.00 | 0.00 | 0.00 | 1013.2 | |
| 20260905035023 | 74 | 168 | 0.0 | 0.0 | 0.00 | 0.00 | 0.00 | 1013.2 | |
| 20260905034522 | 74 | 168 | 0.0 | 0.0 | 0.00 | 0.00 | 0.00 | 1013.2 | |
| 20260905034022 | 74 | 168 | 0.0 | 0.0 | 0.00 | 0.00 | 0.00 | 1013.2 | |
| 20260905033544 | 74 | 168 | 0.0 | 0.0 | 0.00 | 0.00 | 0.00 | 1013.2 | |
| 20260905033023 | 74 | 168 | 0.0 | 0.0 | 0.00 | 0.00 | 0.00 | 1013.2 | |
| 20260905032523 | 74 | 168 | 0.0 | 0.0 | 0.00 | 0.00 | 0.00 | 1013.2 | |
| 20260905032022 | 74 | 168 | 0.0 | 0.0 | 0.00 | 0.00 | 0.00 | 1014.2 | |
| 20260905031523 | 74 | 168 | 0.0 | 0.0 | 0.00 | 0.00 | 0.00 | 1014.2 | |
| 20260905031022 | 74 | 168 | 0.0 | 0.0 | 0.00 | 0.00 | 0.00 | 1014.2 | |
| 20260905030522 | 74 | 168 | 0.0 | 0.0 | 0.00 | 0.00 | 0.00 | 1013.2 | |
| 20260905030025 | 74 | 168 | 0.0 | 0.0 | 0.00 | 0.00 | 0.00 | 1013.2 | |
| 20260905025522 | 75 | 163 | 0.0 | 0.0 | 0.00 | 0.00 | 0.00 | 1013.2 | |
| 20260905025028 | 77 | 163 | 0.0 | 0.0 | 0.00 | 0.00 | 0.00 | 1014.2 | |
| 20260905024527 | 78 | 163 | 4.0 | 0.0 | 0.00 | 0.00 | 0.00 | 1014.2 | |
| 20260905024026 | 78 | 163 | 0.0 | 0.0 | 0.00 | 0.00 | 0.00 | 1014.2 | |
| 20260905023544 | 79 | 163 | 0.0 | 0.0 | 0.00 | 0.00 | 0.00 | 1013.2 | |
| 20260905023045 | 79 | 163 | 0.0 | 0.0 | 0.00 | 0.00 | 0.00 | 1013.2 | |
| 20260905022524 | 79 | 163 | 0.0 | 0.0 | 0.00 | 0.00 | 0.00 | 1013.2 | |
| 20260905022028 | 79 | 163 | 0.0 | 0.0 | 0.00 | 0.00 | 0.00 | 1013.2 | |
| 20260905021527 | 80 | 163 | 0.0 | 0.0 | 0.00 | 0.00 | 0.00 | 1013.2 | |
| 20260905021023 | 80 | 163 | 0.0 | 0.0 | 0.00 | 0.00 | 0.00 | 1013.2 | |
| 20260905020526 | 80 | 163 | 0.0 | 0.0 | 0.00 | 0.00 | 0.00 | 1013.2 | |
| 20260905020032 | 80 | 163 | 0.0 | 0.0 | 0.00 | 0.00 | 0.00 | 1013.2 | |
| 20260905015524 | 81 | 163 | 0.0 | 0.0 | 0.00 | 0.00 | 0.00 | 1013.2 | |
| 20260905015045 | 81 | 163 | 0.0 | 0.0 | 0.00 | 0.00 | 0.00 | 1013.2 | |
| 20260905014522 | 81 | 163 | 0.0 | 0.0 | 0.00 | 0.00 | 0.00 | 1013.2 | |
| 20260905014023 | 81 | 163 | 0.0 | 0.0 | 0.00 | 0.00 | 0.00 | 1013.2 | |
| 20260905013527 | 81 | 163 | 0.0 | 0.0 | 0.00 | 0.00 | 0.00 | 1013.2 | |
| 20260905013029 | 81 | 163 | 0.0 | 0.0 | 0.00 | 0.00 | 0.00 | 1013.2 | |
| 20260905012525 | 81 | 163 | 0.0 | 0.0 | 0.00 | 0.00 | 0.00 | 1013.2 | |
| 20260905012022 | 81 | 163 | 0.0 | 0.0 | 0.00 | 0.00 | 0.00 | 1013.2 | |
| 20260905011530 | 81 | 163 | 0.0 | 0.0 | 0.00 | 0.00 | 0.00 | 1013.2 | |
| 20260905011023 | 81 | 163 | 0.0 | 0.0 | 0.00 | 0.00 | 0.00 | 1013.2 | |
| 20260905010523 | 81 | 163 | 0.0 | 0.0 | 0.00 | 0.00 | 0.00 | 1012.2 | |
| 20260905010023 | 81 | 163 | 0.0 | 0.0 | 0.00 | 0.00 | 0.00 | 1012.2 | |
| 20260905005525 | 81 | 163 | 0.0 | 0.0 | 0.00 | 0.00 | 0.00 | 1012.2 | |
| 20260905005043 | 81 | 163 | 0.0 | 0.0 | 0.00 | 0.00 | 0.00 | 1012.2 | |
| 20260905004544 | 82 | 163 | 0.0 | 0.0 | 0.00 | 0.00 | 0.00 | 1012.2 | |
| 20260905004044 | 82 | 163 | 0.0 | 0.0 | 0.00 | 0.00 | 0.00 | 1012.2 | |
| 20260905003544 | 82 | 163 | 0.0 | 0.0 | 0.00 | 0.00 | 0.00 | 1012.2 | |
| 20260905003022 | 82 | 165 | 0.0 | 0.0 | 0.00 | 0.00 | 0.00 | 1012.2 | |
| 20260905002522 | 82 | 165 | 0.0 | 0.0 | 0.00 | 0.00 | 0.00 | 1012.2 | |
| 20260905002023 | 82 | 165 | 0.0 | 0.0 | 0.00 | 0.00 | 0.00 | 1012.2 | |
| 20260905001522 | 82 | 165 | 0.0 | 0.0 | 0.00 | 0.00 | 0.00 | 1012.2 | |
| 20260905001022 | 83 | 220 | 0.0 | 0.0 | 0.00 | 0.00 | 0.00 | 1012.2 | |
| 20260905000525 | 83 | 195 | 0.0 | 0.0 | 0.00 | 0.00 | 0.00 | 1012.2 | |
| 20260905000029 | 83 | 224 | 0.0 | 0.0 | 0.00 | 0.00 | 0.00 | 1012.2 | |
| 20260904235524 | 83 | 234 | 0.0 | 2.0 | 0.00 | 0.00 | 0.00 | 1012.2 | |
| 20260904235022 | 83 | 221 | 0.0 | 0.0 | 0.00 | 0.00 | 0.00 | 1012.2 | |
| 20260904234523 | 83 | 221 | 0.0 | 0.0 | 0.00 | 0.00 | 0.00 | 1012.2 | |
| 20260904234023 | 83 | 215 | 0.0 | 0.0 | 0.00 | 0.00 | 0.00 | 1012.2 | |
| 20260904233524 | 84 | 216 | 0.0 | 0.0 | 0.00 | 0.00 | 0.00 | 1012.2 | |
| 20260904233023 | 84 | 206 | 0.0 | 0.0 | 0.00 | 0.00 | 0.00 | 1012.2 |